• In Österreich
  • Länderverzeichnis
  • Für 7 Tage
  • Wassertemperatur
  • Satellitenkarten
  • Wetterkarte
  • News
  • Widgets
  • user-avatar
    Anmelden

    Stündliche Wetter Tercan

    Heute, 19 November, Sonntag

    Zeit Temperatur Niederschläge Wind Luftdruck Luftfeuchtigkeit
    00:00 +4°C° 0 mm 2 m/S 620 mmHg 52%
    01:00 +4°C° 0 mm 2 m/S 620 mmHg 53%
    02:00 +4°C° 0 mm 2 m/S 620 mmHg 53%
    03:00 +4°C° 0 mm 2 m/S 620 mmHg 52%
    04:00 +4°C° 0 mm 2 m/S 620 mmHg 53%
    05:00 +3°C° 0 mm 2 m/S 620 mmHg 54%
    06:00 +3°C° 0 mm 2 m/S 619 mmHg 55%
    07:00 +4°C° 0 mm 2 m/S 620 mmHg 52%
    08:00 +5°C° 0 mm 2 m/S 620 mmHg 50%
    09:00 +6°C° 0 mm 2 m/S 620 mmHg 46%
    10:00 +7°C° 0,1 mm 2 m/S 621 mmHg 46%
    11:00 +7°C° 0,1 mm 3 m/S 621 mmHg 45%
    12:00 +8°C° 0,1 mm 3 m/S 621 mmHg 45%
    13:00 +8°C° 0,4 mm 3 m/S 621 mmHg 51%
    14:00 +7°C° 0,4 mm 3 m/S 620 mmHg 58%
    15:00 +7°C° 0,4 mm 3 m/S 620 mmHg 64%
    16:00 +5°C° 0,7 mm 3 m/S 620 mmHg 70%
    17:00 +5°C° 0,7 mm 2 m/S 619 mmHg 76%
    18:00 +4°C° 0,7 mm 2 m/S 619 mmHg 82%
    19:00 +4°C° 0,1 mm 2 m/S 619 mmHg 84%
    20:00 +4°C° 0,1 mm 2 m/S 619 mmHg 86%
    21:00 +3°C° 0,1 mm 2 m/S 619 mmHg 88%
    22:00 +3°C° 0,1 mm 2 m/S 619 mmHg 89%
    23:00 +3°C° 0,1 mm 2 m/S 619 mmHg 90%

    Morgen, 20 November, Montag

    Zeit Temperatur Niederschläge Wind Luftdruck Luftfeuchtigkeit
    00:00 +3°C° 0,1 mm 2 m/S 619 mmHg 90%
    01:00 +3°C° 0 mm 2 m/S 619 mmHg 91%
    02:00 +3°C° 0 mm 2 m/S 619 mmHg 92%
    03:00 +2°C° 0 mm 2 m/S 619 mmHg 93%
    04:00 +3°C° 0 mm 2 m/S 618 mmHg 93%
    05:00 +3°C° 0 mm 2 m/S 618 mmHg 93%
    06:00 +3°C° 0 mm 2 m/S 618 mmHg 93%
    07:00 +3°C° 0,1 mm 2 m/S 618 mmHg 92%
    08:00 +3°C° 0,1 mm 2 m/S 618 mmHg 91%
    09:00 +4°C° 0,1 mm 2 m/S 618 mmHg 90%
    10:00 +4°C° 0,1 mm 3 m/S 618 mmHg 86%
    11:00 +4°C° 0,1 mm 3 m/S 618 mmHg 81%
    12:00 +5°C° 0,1 mm 4 m/S 618 mmHg 77%
    13:00 +5°C° 0,1 mm 4 m/S 617 mmHg 76%
    14:00 +5°C° 0,1 mm 4 m/S 617 mmHg 74%
    15:00 +6°C° 0,1 mm 4 m/S 617 mmHg 73%
    16:00 +5°C° 0,1 mm 3 m/S 616 mmHg 77%
    17:00 +4°C° 0,1 mm 3 m/S 616 mmHg 81%
    18:00 +4°C° 0,1 mm 2 m/S 616 mmHg 85%
    19:00 +4°C° 0,2 mm 2 m/S 615 mmHg 86%
    20:00 +4°C° 0,2 mm 2 m/S 615 mmHg 88%
    21:00 +3°C° 0,2 mm 3 m/S 615 mmHg 89%
    22:00 +3°C° 0,2 mm 3 m/S 615 mmHg 90%
    23:00 +3°C° 0,2 mm 3 m/S 615 mmHg 90%

    übermorgen, 21 November, Dienstag

    Zeit Temperatur Niederschläge Wind Luftdruck Luftfeuchtigkeit
    00:00 +3°C° 0,2 mm 3 m/S 614 mmHg 91%
    01:00 +3°C° 0,1 mm 3 m/S 614 mmHg 91%
    02:00 +3°C° 0,1 mm 3 m/S 614 mmHg 91%
    03:00 +3°C° 0,1 mm 3 m/S 613 mmHg 91%
    04:00 +3°C° 0,3 mm 3 m/S 613 mmHg 92%
    05:00 +3°C° 0,3 mm 3 m/S 613 mmHg 93%
    06:00 +3°C° 0,3 mm 3 m/S 613 mmHg 94%
    07:00 +3°C° 0,4 mm 4 m/S 613 mmHg 92%
    08:00 +3°C° 0,4 mm 4 m/S 613 mmHg 90%
    09:00 +4°C° 0,4 mm 4 m/S 613 mmHg 89%
    10:00 +3°C° 0,6 mm 5 m/S 612 mmHg 86%
    11:00 +3°C° 0,6 mm 5 m/S 612 mmHg 84%
    12:00 +5°C° 0,6 mm 5 m/S 612 mmHg 81%
    13:00 +4°C° 0,8 mm 6 m/S 611 mmHg 82%
    14:00 +4°C° 0,8 mm 6 m/S 611 mmHg 83%
    15:00 +3°C° 0,8 mm 7 m/S 610 mmHg 84%
    16:00 +3°C° 1,4 mm 7 m/S 610 mmHg 86%
    17:00 +3°C° 1,4 mm 7 m/S 610 mmHg 87%
    18:00 +2°C° 1,4 mm 8 m/S 610 mmHg 89%
    19:00 +2°C° 1,7 mm 6 m/S 610 mmHg 91%
    20:00 +3°C° 1,7 mm 4 m/S 610 mmHg 92%
    21:00 +4°C° 1,7 mm 2 m/S 611 mmHg 94%
    22:00 +4°C° 1 mm 2 m/S 611 mmHg 94%
    23:00 +3°C° 1 mm 2 m/S 612 mmHg 94%

    22 November, Mittwoch

    Zeit Temperatur Niederschläge Wind Luftdruck Luftfeuchtigkeit
    00:00 +3°C° 1 mm 2 m/S 612 mmHg 94%
    01:00 +2°C° 0,9 mm 2 m/S 612 mmHg 94%
    02:00 +3°C° 0,9 mm 1 m/S 612 mmHg 94%
    03:00 +3°C° 0,9 mm 1 m/S 612 mmHg 94%
    04:00 +1°C° 1,1 mm 2 m/S 613 mmHg 94%
    05:00 -1°C° 1,1 mm 2 m/S 613 mmHg 94%
    06:00 -1°C° 1,1 mm 3 m/S 613 mmHg 95%
    07:00 -2°C° 0,9 mm 3 m/S 613 mmHg 94%
    08:00 -2°C° 0,9 mm 3 m/S 613 mmHg 94%
    09:00 -4°C° 0,9 mm 3 m/S 614 mmHg 94%
    10:00 -4°C° 0,5 mm 3 m/S 614 mmHg 93%
    11:00 -4°C° 0,5 mm 3 m/S 614 mmHg 91%
    12:00 -4°C° 0,5 mm 3 m/S 614 mmHg 89%
    13:00 -4°C° 0,2 mm 3 m/S 614 mmHg 88%
    14:00 -3°C° 0,2 mm 2 m/S 614 mmHg 87%
    15:00 -2°C° 0,2 mm 2 m/S 614 mmHg 86%
    16:00 -3°C° 0,1 mm 2 m/S 614 mmHg 88%
    17:00 -4°C° 0,1 mm 2 m/S 614 mmHg 90%
    18:00 -5°C° 0,1 mm 2 m/S 614 mmHg 92%
    19:00 -3°C° 0,1 mm 1 m/S 614 mmHg 92%
    20:00 -4°C° 0,1 mm 1 m/S 615 mmHg 93%
    21:00 -4°C° 0,1 mm 1 m/S 615 mmHg 93%
    22:00 -6°C° 0 mm 1 m/S 614 mmHg 93%
    23:00 -6°C° 0 mm 1 m/S 614 mmHg 93%

    23 November, Donnerstag

    Zeit Temperatur Niederschläge Wind Luftdruck Luftfeuchtigkeit
    00:00 -7°C° 0 mm 1 m/S 614 mmHg 93%
    01:00 -7°C° 0 mm 1 m/S 614 mmHg 93%
    02:00 -8°C° 0 mm 1 m/S 614 mmHg 93%
    03:00 -8°C° 0 mm 1 m/S 613 mmHg 93%
    04:00 -8°C° 0 mm 1 m/S 613 mmHg 93%
    05:00 -8°C° 0 mm 1 m/S 613 mmHg 93%
    06:00 -8°C° 0 mm 1 m/S 613 mmHg 93%
    07:00 -8°C° 0 mm 1 m/S 614 mmHg 92%
    08:00 -7°C° 0 mm 1 m/S 615 mmHg 91%
    09:00 -7°C° 0 mm 1 m/S 615 mmHg 90%
    10:00 -4°C° 0 mm 1 m/S 615 mmHg 88%
    11:00 -5°C° 0 mm 2 m/S 616 mmHg 85%
    12:00 -4°C° 0 mm 2 m/S 616 mmHg 83%
    13:00 -4°C° 0,1 mm 2 m/S 616 mmHg 83%
    14:00 -4°C° 0,1 mm 2 m/S 616 mmHg 83%
    15:00 -4°C° 0,1 mm 2 m/S 616 mmHg 83%
    16:00 -5°C° 0,1 mm 2 m/S 616 mmHg 85%
    17:00 -4°C° 0,1 mm 1 m/S 616 mmHg 87%
    18:00 -7°C° 0,1 mm 1 m/S 616 mmHg 89%
    19:00 -7°C° 0,1 mm 1 m/S 616 mmHg 90%
    20:00 -7°C° 0,1 mm 1 m/S 617 mmHg 91%
    21:00 -8°C° 0,1 mm 1 m/S 617 mmHg 91%
    22:00 -8°C° 0,1 mm 1 m/S 617 mmHg 91%
    23:00 -8°C° 0,1 mm 1 m/S 617 mmHg 92%

    24 November, Freitag

    Zeit Temperatur Niederschläge Wind Luftdruck Luftfeuchtigkeit
    00:00 -8°C° 0,1 mm 1 m/S 617 mmHg 92%
    01:00 -9°C° 0 mm 1 m/S 617 mmHg 92%
    02:00 -9°C° 0 mm 1 m/S 617 mmHg 93%
    03:00 -9°C° 0 mm 1 m/S 617 mmHg 93%
    04:00 -10°C° 0 mm 1 m/S 617 mmHg 93%
    05:00 -10°C° 0 mm 1 m/S 617 mmHg 93%
    06:00 -10°C° 0 mm 1 m/S 618 mmHg 94%
    07:00 -9°C° 0 mm 1 m/S 618 mmHg 93%
    08:00 -9°C° 0 mm 1 m/S 619 mmHg 92%
    09:00 -8°C° 0 mm 1 m/S 619 mmHg 91%
    10:00 -7°C° 0,1 mm 1 m/S 619 mmHg 89%
    11:00 -6°C° 0,1 mm 1 m/S 619 mmHg 87%
    12:00 -3°C° 0,1 mm 1 m/S 619 mmHg 84%
    13:00 -3°C° 0,1 mm 1 m/S 619 mmHg 84%
    14:00 -3°C° 0,1 mm 1 m/S 619 mmHg 84%
    15:00 -5°C° 0,1 mm 2 m/S 619 mmHg 84%
    16:00 -6°C° 0 mm 1 m/S 619 mmHg 86%
    17:00 -7°C° 0 mm 1 m/S 619 mmHg 87%
    18:00 -9°C° 0 mm 1 m/S 618 mmHg 89%
    19:00 -9°C° 0 mm 1 m/S 619 mmHg 89%
    20:00 -10°C° 0 mm 1 m/S 619 mmHg 89%
    21:00 -11°C° 0 mm 1 m/S 619 mmHg 89%
    22:00 -11°C° 0 mm 1 m/S 619 mmHg 90%
    23:00 -11°C° 0 mm 1 m/S 619 mmHg 90%
    Mehr zeigen